Flag for Italy Weather past 2 weeks in Palermo, Italy

57 °F

Sprinkles. Broken clouds.

Feels Like: 53 °F
Forecast: 56 / 60 °F
Wind: 20 mph from West

Location: Palermo / Punta Raisi

Current Time: Nov 27, 2015 at 1:53:54 PM

Latest Report: Nov 27, 2015 at 12:50 PM

Visibility: 4 mi

Pressure: 29.56 "Hg

Humidity: 67%

Dew point: 46 °F

Location of PalermoLocation

Historic Weather in Palermo — Graph


Palermo temperature yesterday

Maximum temperature yesterday: 82 °F (at 6:50 AM)
Minimum temperature yesterday: 54 °F (at 9:50 AM)
Average temperature yesterday: 58 °F

Past Weeks' High & Low Weather Summary

High82 °F (Nov 26, 6:50 AM)100% (Nov 13, 5:50 AM)30.39 "Hg (Nov 13, 5:50 AM)
Low54 °F (Nov 17, 7:50 AM)39% (Nov 26, 7:20 AM)29.30 "Hg (Nov 26, 1:50 PM)
Average62 °F74%30.01 "Hg
* Reported Nov 12 12:20 PM — Nov 27 12:20 PM, Palermo, Weather by CustomWeather, © 2015

Note: Actual official high and low records may vary slightly from our data, if they occured in-between our weather recording intervals... More about our weather records


Palermo weather history for previous 24 hours

Time TempWeatherWind HumidityBarometerVisibility
12:20 PM
Fri, Nov 27
57 °FSprinkles. Broken clouds.17 mph77%29.56 "Hg4 mi
11:50 AM54 °FRain showers. Broken clouds.26 mph82%29.56 "Hg4 mi
11:20 AM57 °FSprinkles. Broken clouds.12 mph77%29.56 "HgN/A
10:50 AM55 °FSprinkles. Broken clouds.15 mph77%29.59 "Hg5 mi
10:20 AM54 °FSprinkles. Broken clouds.20 mph82%29.59 "Hg4 mi
9:50 AM55 °FSprinkles. Broken clouds.21 mph77%29.56 "Hg6 mi
9:20 AM54 °FThunderstorms. Broken clouds.25 mph82%29.56 "Hg4 mi
8:50 AM55 °FThunderstorms. Broken clouds.14 mph77%29.53 "Hg5 mi
7:50 AM54 °FThunderstorms. Broken clouds.21 mph77%29.53 "Hg4 mi
7:20 AM55 °FThunderstorms. Broken clouds.14 mph72%29.53 "Hg5 mi
6:50 AM57 °FThunderstorms. Partly cloudy.24 mph72%29.50 "Hg6 mi
6:20 AM55 °FLight rain. Partly cloudy.21 mph72%29.50 "Hg6 mi
5:50 AM54 °FThunderstorms. Partly cloudy.18 mph82%29.50 "Hg6 mi
4:20 AM55 °FLots of rain. Partly cloudy.30 mph77%29.47 "Hg2 mi
3:50 AM57 °FRain showers. Partly cloudy.29 mph72%29.47 "Hg4 mi
3:20 AM54 °FThunderstorms. Partly cloudy.14 mph77%29.50 "Hg5 mi
2:50 AM57 °FThunderstorms. Partly cloudy.21 mph72%29.47 "Hg6 mi
1:50 AM55 °FThundershowers. Partly cloudy.21 mph67%29.47 "Hg6 mi
1:20 AM57 °FLight rain. Partly cloudy.20 mph72%29.47 "HgN/A
12:50 AM55 °FThunderstorms. Partly cloudy.30 mph72%29.47 "Hg4 mi
12:20 AM55 °FThunderstorms. Partly cloudy.24 mph77%29.47 "Hg5 mi
11:50 PM
Thu, Nov 26
57 °FLight rain. Partly cloudy.25 mph72%29.47 "Hg6 mi
10:50 PM57 °FThunderstorms. Passing clouds.26 mph67%29.45 "Hg5 mi
10:20 PM54 °FThunderstorms. Passing clouds.13 mph88%29.45 "Hg4 mi
9:50 PM57 °FThunderstorms. Passing clouds.12 mph77%29.45 "Hg5 mi
9:20 PM55 °FThunderstorms. Passing clouds.22 mph72%29.45 "Hg4 mi
8:50 PM57 °FLight rain. Passing clouds.28 mph72%29.42 "HgN/A
8:20 PM57 °FThunderstorms. Passing clouds.28 mph82%29.42 "Hg4 mi
7:50 PM57 °FThunderstorms. Passing clouds.32 mph77%29.39 "Hg4 mi
7:20 PM57 °FThunderstorms. Passing clouds.23 mph72%29.39 "HgN/A
6:50 PM59 °FThunderstorms. Passing clouds.24 mph68%29.36 "HgN/A
6:20 PM59 °FThunderstorms. Passing clouds.28 mph68%29.36 "HgN/A
5:50 PM59 °FThunderstorms. Passing clouds.28 mph68%29.36 "HgN/A
5:20 PM57 °FThunderstorms. Passing clouds.26 mph72%29.36 "HgN/A
4:50 PM57 °FPassing clouds.23 mph67%29.36 "HgN/A
4:20 PM57 °FSprinkles. Broken clouds.26 mph67%29.36 "HgN/A
3:50 PM57 °FSprinkles. Broken clouds.28 mph72%29.33 "HgN/A
3:20 PM55 °FSprinkles. Broken clouds.23 mph82%29.33 "HgN/A
2:50 PM57 °FRain showers. Broken clouds.29 mph77%29.33 "Hg4 mi
2:20 PM57 °FScattered clouds.28 mph72%29.33 "HgN/A
1:50 PM59 °FScattered clouds.26 mph68%29.30 "HgN/A
1:20 PM59 °FThunderstorms. Broken clouds.25 mph68%29.33 "Hg5 mi
Weather by CustomWeather, © 2015

See weather overviewHow to use our weather pages